Regional Weather Roundup
Issued by NWS Newport/Morehead, NC

Current Version | Previous Version | Graphics & Text | Print | Product List | Glossary On
Versions: 1 2 3 4 5 6 7 8 9 10 11 12 13 14 15 16 17 18 19 20 21 22 23 24 25 26 27 28 29 30 31 32 33 34 35 36 37 38 39 40 41 42 43 44 45 46 47 48 49 50
000 ASUS42 KMHX 261310 RWRMHX WEATHER ROUNDUP FOR EASTERN NORTH CAROLINA NATIONAL WEATHER SERVICE NEWPORT/MOREHEAD CITY NC 800 AM EST MON JAN 26 2015 NOTE: "FAIR" INDICATES FEW OR NO CLOUDS BELOW 12,000 FEET WITH NO SIGNIFICANT WEATHER AND/OR OBSTRUCTIONS TO VISIBILITY NCZ015>017-031-032-045>047-102-103-261400- NORTH COAST CITY SKY/WX TMP DP RH WIND PRES REMARKS EDENTON CLOUDY 38 37 96 CALM 29.69F ELIZABETH CITY CLOUDY 43 40 89 CALM 29.71F KITTY HAWK CLOUDY 47 45 94 NE3 29.70R MANTEO CLOUDY 46 43 87 NE5 29.70F $$ NCZ045>047-081-094-103-104-261400- CENTRAL COAST CITY SKY/WX TMP DP RH WIND PRES REMARKS FRISCO CLOUDY 49 45 86 W6 29.70S SWANQUARTER NOT AVBL $$ NCZ095-097-098-100-101-261400- SOUTHERN COAST CITY SKY/WX TMP DP RH WIND PRES REMARKS BEAUFORT CLOUDY 43 42 97 CALM 29.70S CEDAR ISLAND NOT AVBL JACKSONVILLE CLOUDY 41 40 96 N3 29.67S PINEY ISLAND N/A N/A N/A N/A MISG 29.69F WILMINGTON CLOUDY 48 45 89 W6 29.67S $$ NCZ011>013-027>030-043-044-078>080-089-090>093-098-261400- COASTAL PLAIN CITY SKY/WX TMP DP RH WIND PRES REMARKS AHOSKIE MOCLDY 35 34 96 CALM 29.71F FOG CLINTON CLOUDY 39 39 100 CALM 29.68S ELIZABETHTOWN PTCLDY 42 41 97 CALM 29.67S GOLDSBORO MOCLDY 37 37 100 CALM 29.68R GREENVILLE PTCLDY 36 36 100 CALM 29.72F HAVELOCK CLOUDY 40 37 89 CALM 29.70F KENANSVILLE MOCLDY 36 36 100 CALM 29.68F FOG KINSTON PTCLDY 37 36 93 CALM 29.69S FOG NEW BERN CLOUDY 41 37 86 CALM 29.70S RICHLANDS CLOUDY 39 36 87 CALM 29.68F ROCKY MOUNT PTCLDY 34 33 96 S6 29.70S FOG WASHINGTON CLOUDY 37 37 97 CALM 29.70S WHITEVILLE MOCLDY 44 42 93 CALM 29.66F $$ AMZ130-135-150-152-154-156-158-170-250-252-270-ANZ085-086-088-633-658-670-261400- MARINE OBSERVATIONS STATION/POSITION TIME TEMP WIND PRES WAVE SWELL AIR SEA DIR/SP/G HT/PER HT/PER (UTC) (F) (DEG/KT/KT) (MB) (FT/S) (FT/S) CHESAPEAKE LIGHT 1200 46 70/ 14/ 14 1007.0 64 E VA BEACH 1300 54 52 60/ 14/ 16 1005.3 3/ 8 3/ 8 DUCK 1300 47 44 50/ 10/ 12 1005.1 2 E DUCK 1300 43 N/A 2/ 8 10 NE DUCK 1300 44 N/A 2/ 9 OREGON INLET 1300 48 46 20/ 2/ 2 1005.5 13E OREGON INLT 1300 46 N/A 2/ 8 2/11 HATTERAS CG 1300 51 55 260/ 3/ 5 1006.0 DIAMOND BUOY 1300 58 69 290/ 8/ 14 1005.3 3/ 8 3/ 8 17 S OCRACOKE NOT AVBL CAPE LOOKOUT 1200 50 360/ 5/ 5 1005.5 BEAUFORT LAB 1300 46 50 170/ 2/ 3 1004.5 27 SE WRIGHTSVLE NOT AVBL 5 SE WRIGHTSVLE 1200 53 51 250/ 10/ 12 1004.7 225 S CAPE HAT 1217 70 72 210/ 25/ 29 1006.1 6/ 5 2/ 9 41 SE CHARLESTON 1300 59 69 270/ 19/ 23 1004.6 7/ 7 $$

USA.gov is the U.S. government's official web portal to all federal, state and local government web resources and services.